Location: Gleizolles
(44.4833°N, 6.7667°E)
Time: 22:49:39
(UTC+00:00)

Cosmos 407 Rocket - Pass Details

Date: 09 April 2020
Orbit: 743 x 787 km, 74.0° (Epoch: 05 June)

Event Time Altitude Azimuth Distance (km) Brightness Sun altitude
Rises 19:01:54 0° 195° (SSW) 3,187 6.6 -9.6°
Reaches altitude 10° 19:04:15 10° 194° (SSW) 2,261 5.9 -10.0°
Maximum altitude 19:09:22 79° 109° (ESE) 764 3.4 -10.8°
Drops below altitude 10° 19:14:29 10° 23° (NNE) 2,266 6.0 -11.6°
Sets 19:16:51 0° 23° (NNE) 3,193 6.7 -12.0°
